Location: Newark
(49.3808°N, 3.1844°E)
Time: 10:13:56
(UTC+00:00)

Vanguard 1 Rocket - Pass Details

Date: 21 November 2019
Orbit: 650 x 4226 km, 34.3° (Epoch: 09 December)

Event Time Altitude Azimuth Distance (km) Brightness Sun altitude
Rises 06:39:34 0° 245° (WSW) 3,105 9.8 -4.7°
Reaches altitude 10° 06:43:11 10° 214° (SW) 2,458 9.5 -4.2°
Maximum altitude 06:45:30 13° 190° (S) 2,507 9.9 -3.9°
Drops below altitude 10° 06:48:12 10° 166° (SSE) 2,995 10.7 -3.5°
Sets 06:53:53 0° 141° (SE) 4,690 12.5 -2.7°
